{"data":{"norad_id":57457,"epoch":"2026-09-20T04:57:19.864224Z","epoch_age_seconds":153304,"freshness":"FRESH","line1":"1 57457U 23107A   26263.20647991  .00002552  00000+0  10223-3 0  9992","line2":"2 57457  43.0040 317.7766 0001575 267.6742  92.3930 15.27583135174884","mean_motion":15.27583135,"eccentricity":0.0001575,"inclination_deg":43.004,"raan_deg":317.7766,"arg_perigee_deg":267.6742,"mean_anomaly_deg":92.393,"bstar":0.00010223,"rev_number":17488,"period_min":94.266555253636,"perigee_km":481.95907340627,"apogee_km":484.12034406952,"semimajor_km":6861.1767087379,"source":"CELESTRAK","updated_at":"2026-09-21T09:00:33.628823Z"}}